NORTHEAST SUFFOLK  -  Rip Current Statement Rip Current Statement        NORTHWEST SUFFOLK  -  Rip Current Statement Rip Current Statement        SOUTHEAST SUFFOLK  -  Rip Current Statement Rip Current Statement        SOUTHWEST SUFFOLK  -  Rip Current Statement Rip Current Statement      

Active alerts

Northwest Suffolk
  Details for Northwest Suffolk Rip Current Statement
Southwest Suffolk
  Details for Southwest Suffolk Rip Current Statement
Northeast Suffolk
  Details for Northeast Suffolk Rip Current Statement
Southeast Suffolk
  Details for Southeast Suffolk Rip Current Statement


WXM80 ListenWXM80 Stop

You find our weather info also at:

UK Metoffice

WeatherCloud

Weather Underground

Northeastern Weather Network

AWEKAS

Citizen Weather Observer Program (CWOP)

HAMweather, WeatherForYou, PWS Weather


Weather Underground History page Text

Daily Summary for April 8, 2017 Units:  English    Metric   Both
« Previous Day
Next Day »
Daily Weekly Monthly Yearly Custom
  High: Low: Average:
Temperature: 56.3 °F 39.8 °F 47.1 °F
Dew Point: 33.2 °F 27.9 °F 30.4 °F
Humidity: 70 % 36 % 53 %
Wind Speed: 12.7 mph 0.4 mph 6.2 mph
Wind Gust: 24.2 mph - -
Wind:- - WNW
Pressure: 29.99 in 29.58 in -
Precipitation: 0.00 in    
Historical Graphs
 
 
Tabular Data for April 8, 2017
Time Temperature Dew Point Pressure Wind Wind Speed Wind Gust Humidity Rainfall Rate (Hourly)
00:04 41.2 °F 31.4 °F 29.59 in NW 1.0 mph 1.2 mph 68 % 0.00 in
00:09 41.2 °F 31.1 °F 29.58 in SW 8.0 mph 19.6 mph 67 % 0.00 in
00:14 41.2 °F 31.1 °F 29.59 in West 7.9 mph 24.2 mph 67 % 0.00 in
00:19 41.1 °F 31.0 °F 29.59 in NW 9.4 mph 17.3 mph 67 % 0.00 in
00:24 41.1 °F 31.3 °F 29.59 in NNW 9.8 mph 16.1 mph 68 % 0.00 in
00:29 41.1 °F 31.3 °F 29.59 in West 3.4 mph 9.2 mph 68 % 0.00 in
00:34 41.0 °F 31.6 °F 29.60 in WSW 8.8 mph 14.0 mph 69 % 0.00 in
00:39 40.9 °F 31.5 °F 29.60 in SW 8.4 mph 16.1 mph 69 % 0.00 in
00:44 40.8 °F 31.4 °F 29.60 in West 6.8 mph 10.4 mph 69 % 0.00 in
00:49 40.7 °F 31.3 °F 29.60 in West 6.4 mph 11.5 mph 69 % 0.00 in
00:54 40.6 °F 31.2 °F 29.60 in WSW 6.5 mph 12.0 mph 69 % 0.00 in
00:59 40.5 °F 31.1 °F 29.60 in WSW 6.2 mph 15.0 mph 69 % 0.00 in
01:04 40.5 °F 31.1 °F 29.60 in West 6.7 mph 11.5 mph 69 % 0.00 in
01:09 40.4 °F 31.4 °F 29.61 in WNW 7.0 mph 10.4 mph 70 % 0.00 in
01:14 40.4 °F 31.4 °F 29.60 in WNW 5.8 mph 11.5 mph 70 % 0.00 in
01:19 40.3 °F 31.3 °F 29.61 in West 4.6 mph 11.5 mph 70 % 0.00 in
01:24 40.2 °F 31.2 °F 29.61 in West 9.7 mph 13.8 mph 70 % 0.00 in
01:29 40.2 °F 31.2 °F 29.61 in WSW 7.4 mph 12.7 mph 70 % 0.00 in
01:34 40.2 °F 30.8 °F 29.62 in WNW 6.2 mph 12.7 mph 69 % 0.00 in
01:39 40.2 °F 30.8 °F 29.61 in WSW 8.0 mph 16.1 mph 69 % 0.00 in
01:44 40.3 °F 30.9 °F 29.62 in WSW 7.4 mph 17.3 mph 69 % 0.00 in
01:49 40.3 °F 30.9 °F 29.62 in WSW 7.8 mph 12.7 mph 69 % 0.00 in
01:54 40.4 °F 31.0 °F 29.62 in West 9.3 mph 15.0 mph 69 % 0.00 in
01:59 40.4 °F 31.0 °F 29.62 in West 9.0 mph 13.8 mph 69 % 0.00 in
02:04 40.5 °F 31.1 °F 29.61 in SW 7.0 mph 11.5 mph 69 % 0.00 in
02:09 40.5 °F 31.1 °F 29.62 in WSW 7.9 mph 13.8 mph 69 % 0.00 in
02:14 40.5 °F 31.5 °F 29.62 in West 8.8 mph 19.6 mph 70 % 0.00 in
02:19 40.5 °F 31.5 °F 29.62 in WSW 11.4 mph 18.4 mph 70 % 0.00 in
02:24 40.6 °F 31.2 °F 29.62 in WNW 8.3 mph 13.8 mph 69 % 0.00 in
02:30 40.6 °F 31.2 °F 29.62 in WSW 10.3 mph 19.6 mph 69 % 0.00 in
02:35 40.6 °F 31.2 °F 29.62 in WNW 12.7 mph 19.6 mph 69 % 0.00 in
02:40 40.6 °F 31.2 °F 29.62 in West 8.1 mph 11.5 mph 69 % 0.00 in
02:45 40.6 °F 31.6 °F 29.62 in NW 10.5 mph 12.7 mph 70 % 0.00 in
02:50 40.6 °F 31.6 °F 29.62 in SW 8.8 mph 18.0 mph 70 % 0.00 in
02:55 40.5 °F 31.5 °F 29.62 in WSW 10.0 mph 18.0 mph 70 % 0.00 in
03:00 40.5 °F 31.1 °F 29.62 in West 8.1 mph 15.0 mph 69 % 0.00 in
03:05 40.5 °F 31.1 °F 29.62 in WSW 9.6 mph 19.6 mph 69 % 0.00 in
03:10 40.4 °F 31.4 °F 29.62 in West 5.8 mph 13.8 mph 70 % 0.00 in
03:12 40.4 °F 31.4 °F 29.62 in West 7.3 mph 11.5 mph 70 % 0.00 in
03:17 40.4 °F 31.4 °F 29.62 in NW 4.1 mph 9.2 mph 70 % 0.00 in
03:22 40.4 °F 31.4 °F 29.62 in WNW 5.2 mph 11.5 mph 70 % 0.00 in
03:28 40.4 °F 31.4 °F 29.62 in WNW 8.5 mph 15.0 mph 70 % 0.00 in
03:33 40.4 °F 31.4 °F 29.63 in SW 8.5 mph 15.0 mph 70 % 0.00 in
03:38 40.5 °F 31.5 °F 29.63 in WNW 9.7 mph 15.0 mph 70 % 0.00 in
03:43 40.5 °F 31.1 °F 29.63 in West 9.7 mph 17.3 mph 69 % 0.00 in
03:48 40.4 °F 31.0 °F 29.63 in WSW 5.0 mph 9.2 mph 69 % 0.00 in
03:53 40.4 °F 31.0 °F 29.63 in WSW 9.1 mph 12.7 mph 69 % 0.00 in
03:58 40.3 °F 30.6 °F 29.63 in WSW 7.1 mph 10.4 mph 68 % 0.00 in
04:03 40.3 °F 30.6 °F 29.64 in West 7.2 mph 16.1 mph 68 % 0.00 in
04:08 40.2 °F 30.5 °F 29.64 in SW 7.3 mph 11.5 mph 68 % 0.00 in
04:13 40.2 °F 30.5 °F 29.64 in SW 8.9 mph 16.1 mph 68 % 0.00 in
04:18 40.2 °F 30.5 °F 29.64 in SW 8.8 mph 13.8 mph 68 % 0.00 in
04:23 40.2 °F 30.5 °F 29.64 in West 8.5 mph 13.8 mph 68 % 0.00 in
04:28 40.3 °F 30.6 °F 29.64 in West 6.8 mph 13.8 mph 68 % 0.00 in
04:33 40.3 °F 30.6 °F 29.64 in WSW 4.1 mph 15.0 mph 68 % 0.00 in
04:38 40.4 °F 29.9 °F 29.65 in WNW 5.2 mph 9.2 mph 66 % 0.00 in
04:43 40.4 °F 29.9 °F 29.65 in West 4.5 mph 10.4 mph 66 % 0.00 in
04:48 40.3 °F 29.5 °F 29.65 in WSW 9.7 mph 18.4 mph 65 % 0.00 in
04:53 40.3 °F 29.5 °F 29.65 in WNW 6.7 mph 12.7 mph 65 % 0.00 in
04:58 40.2 °F 29.4 °F 29.65 in South 8.3 mph 13.8 mph 65 % 0.00 in
05:03 40.2 °F 29.0 °F 29.66 in West 6.2 mph 13.8 mph 64 % 0.00 in
05:08 40.2 °F 29.4 °F 29.66 in NW 4.7 mph 9.2 mph 65 % 0.00 in
05:13 40.1 °F 29.6 °F 29.66 in WNW 2.6 mph 9.2 mph 66 % 0.00 in
05:18 40.0 °F 29.2 °F 29.66 in WSW 3.0 mph 8.1 mph 65 % 0.00 in
05:23 40.0 °F 29.2 °F 29.66 in WNW 5.6 mph 9.2 mph 65 % 0.00 in
05:28 40.0 °F 29.2 °F 29.66 in West 2.3 mph 10.4 mph 65 % 0.00 in
05:33 40.0 °F 28.8 °F 29.66 in NW 5.9 mph 15.0 mph 64 % 0.00 in
05:38 40.0 °F 28.8 °F 29.66 in WSW 9.8 mph 14.0 mph 64 % 0.00 in
05:43 40.0 °F 29.2 °F 29.66 in NW 8.4 mph 8.4 mph 65 % 0.00 in
05:48 40.0 °F 29.2 °F 29.67 in West 6.5 mph 13.8 mph 65 % 0.00 in
05:53 39.9 °F 29.1 °F 29.67 in West 6.5 mph 9.2 mph 65 % 0.00 in
05:58 39.9 °F 28.7 °F 29.67 in West 5.9 mph 15.0 mph 64 % 0.00 in
06:03 39.9 °F 28.3 °F 29.67 in WNW 6.3 mph 13.8 mph 63 % 0.00 in
06:08 39.9 °F 28.7 °F 29.67 in WNW 6.1 mph 9.2 mph 64 % 0.00 in
06:13 39.9 °F 28.7 °F 29.67 in NW 7.2 mph 13.0 mph 64 % 0.00 in
06:18 39.8 °F 28.6 °F 29.68 in WNW 5.8 mph 8.1 mph 64 % 0.00 in
06:23 39.8 °F 28.6 °F 29.68 in NW 7.7 mph 11.0 mph 64 % 0.00 in
06:28 39.8 °F 28.6 °F 29.68 in NW 4.4 mph 9.2 mph 64 % 0.00 in
06:33 39.8 °F 28.6 °F 29.68 in WNW 3.9 mph 11.5 mph 64 % 0.00 in
06:38 39.8 °F 28.6 °F 29.68 in NW 6.7 mph 12.7 mph 64 % 0.00 in
06:41 39.8 °F 28.6 °F 29.69 in West 6.1 mph 9.2 mph 64 % 0.00 in
06:46 39.8 °F 28.6 °F 29.69 in WNW 5.8 mph 9.2 mph 64 % 0.00 in
06:51 40.0 °F 28.8 °F 29.69 in West 8.7 mph 13.8 mph 64 % 0.00 in
06:56 40.1 °F 28.9 °F 29.70 in NW 1.7 mph 10.4 mph 64 % 0.00 in
07:01 40.2 °F 28.2 °F 29.70 in WNW 6.2 mph 13.0 mph 62 % 0.00 in
07:06 40.3 °F 27.9 °F 29.70 in WNW 5.0 mph 5.0 mph 61 % 0.00 in
07:07 40.4 °F 28.4 °F 29.70 in WNW 5.0 mph 5.0 mph 62 % 0.00 in
07:12 40.5 °F 28.9 °F 29.71 in WNW 5.4 mph 11.5 mph 63 % 0.00 in
07:17 40.6 °F 28.6 °F 29.71 in WNW 6.6 mph 11.5 mph 62 % 0.00 in
07:22 40.7 °F 28.7 °F 29.71 in WNW 6.0 mph 14.0 mph 62 % 0.00 in
07:27 40.8 °F 28.8 °F 29.71 in WNW 5.0 mph 12.0 mph 62 % 0.00 in
07:32 40.9 °F 28.9 °F 29.71 in WNW 6.0 mph 15.0 mph 62 % 0.00 in
07:37 41.0 °F 29.0 °F 29.71 in WNW 8.0 mph 16.0 mph 62 % 0.00 in
07:42 41.1 °F 29.5 °F 29.71 in West 6.0 mph 14.0 mph 63 % 0.00 in
07:47 41.3 °F 29.6 °F 29.72 in West 6.0 mph 12.0 mph 63 % 0.00 in
07:52 41.4 °F 29.3 °F 29.72 in WNW 7.0 mph 15.0 mph 62 % 0.00 in
07:57 41.6 °F 29.1 °F 29.72 in West 7.5 mph 13.8 mph 61 % 0.00 in
08:02 41.9 °F 29.4 °F 29.72 in WSW 8.2 mph 16.1 mph 61 % 0.00 in
08:07 42.2 °F 28.9 °F 29.73 in WNW 9.0 mph 17.3 mph 59 % 0.00 in
08:12 42.5 °F 29.2 °F 29.73 in NW 7.3 mph 10.4 mph 59 % 0.00 in
08:17 42.8 °F 29.5 °F 29.73 in West 6.0 mph 9.2 mph 59 % 0.00 in
08:22 43.0 °F 29.2 °F 29.73 in WNW 7.7 mph 11.5 mph 58 % 0.00 in
08:27 43.2 °F 29.4 °F 29.72 in West 7.0 mph 15.0 mph 58 % 0.00 in
08:32 43.4 °F 29.2 °F 29.73 in SW 7.0 mph 9.2 mph 57 % 0.00 in
08:37 43.6 °F 29.4 °F 29.73 in WNW 11.6 mph 15.0 mph 57 % 0.00 in
08:42 43.6 °F 28.9 °F 29.72 in West 5.0 mph 18.0 mph 56 % 0.00 in
08:47 43.7 °F 29.0 °F 29.72 in WNW 12.0 mph 20.0 mph 56 % 0.00 in
08:52 43.8 °F 29.5 °F 29.72 in WSW 9.5 mph 13.0 mph 57 % 0.00 in
08:57 44.0 °F 29.3 °F 29.73 in West 10.9 mph 17.0 mph 56 % 0.00 in
08:58 44.0 °F 29.3 °F 29.73 in WNW 8.7 mph 19.6 mph 56 % 0.00 in
09:03 44.0 °F 28.9 °F 29.73 in WSW 10.5 mph 16.1 mph 55 % 0.00 in
09:08 44.2 °F 29.0 °F 29.73 in WNW 7.4 mph 15.0 mph 55 % 0.00 in
09:13 44.3 °F 29.1 °F 29.73 in West 8.3 mph 12.7 mph 55 % 0.00 in
09:18 44.6 °F 29.4 °F 29.73 in WSW 7.0 mph 12.7 mph 55 % 0.00 in
09:23 44.6 °F 29.0 °F 29.74 in WSW 7.6 mph 19.6 mph 54 % 0.00 in
09:28 44.8 °F 29.6 °F 29.74 in West 10.4 mph 18.4 mph 55 % 0.00 in
09:33 44.9 °F 29.2 °F 29.74 in WSW 6.7 mph 16.1 mph 54 % 0.00 in
09:38 45.1 °F 29.9 °F 29.75 in WNW 4.0 mph 13.8 mph 55 % 0.00 in
09:43 45.5 °F 29.8 °F 29.74 in NW 5.6 mph 9.0 mph 54 % 0.00 in
09:48 45.7 °F 29.5 °F 29.75 in West 8.1 mph 17.3 mph 53 % 0.00 in
09:53 45.8 °F 29.6 °F 29.75 in NW 9.6 mph 17.3 mph 53 % 0.00 in
09:58 45.9 °F 29.7 °F 29.75 in WSW 9.4 mph 13.8 mph 53 % 0.00 in
10:03 46.2 °F 30.5 °F 29.76 in WSW 7.5 mph 12.7 mph 54 % 0.00 in
10:08 46.5 °F 30.3 °F 29.76 in WNW 7.1 mph 11.5 mph 53 % 0.00 in
10:13 46.7 °F 30.0 °F 29.76 in West 5.9 mph 17.3 mph 52 % 0.00 in
10:18 46.8 °F 31.0 °F 29.76 in WSW 5.1 mph 10.4 mph 54 % 0.00 in
10:23 46.8 °F 30.1 °F 29.76 in WSW 9.8 mph 17.0 mph 52 % 0.00 in
10:28 46.7 °F 30.0 °F 29.76 in WSW 6.5 mph 11.5 mph 52 % 0.00 in
10:33 46.9 °F 29.7 °F 29.75 in NW 10.2 mph 19.6 mph 51 % 0.00 in
10:34 46.9 °F 29.7 °F 29.76 in WNW 7.7 mph 19.6 mph 51 % 0.00 in
10:40 46.9 °F 29.7 °F 29.76 in WNW 5.3 mph 11.5 mph 51 % 0.00 in
10:45 47.0 °F 30.3 °F 29.76 in WNW 8.6 mph 11.5 mph 52 % 0.00 in
10:50 47.2 °F 29.5 °F 29.76 in WSW 6.5 mph 13.8 mph 50 % 0.00 in
10:55 47.4 °F 30.2 °F 29.76 in West 8.7 mph 12.7 mph 51 % 0.00 in
11:00 47.8 °F 30.5 °F 29.76 in NW 7.2 mph 16.1 mph 51 % 0.00 in
11:05 47.9 °F 30.6 °F 29.76 in WNW 10.2 mph 17.3 mph 51 % 0.00 in
11:10 48.0 °F 30.7 °F 29.76 in NNW 5.9 mph 11.5 mph 51 % 0.00 in
11:15 48.3 °F 31.0 °F 29.76 in NW 4.8 mph 9.0 mph 51 % 0.00 in
11:20 49.1 °F 31.7 °F 29.76 in NW 5.4 mph 9.0 mph 51 % 0.00 in
11:25 49.5 °F 32.1 °F 29.76 in West 6.5 mph 15.0 mph 51 % 0.00 in
11:30 49.6 °F 32.2 °F 29.76 in West 5.7 mph 11.5 mph 51 % 0.00 in
11:32 49.7 °F 31.8 °F 29.76 in WNW 8.2 mph 13.8 mph 50 % 0.00 in
11:37 49.9 °F 31.5 °F 29.76 in NW 8.3 mph 13.8 mph 49 % 0.00 in
11:43 50.1 °F 31.2 °F 29.76 in NW 8.0 mph 15.0 mph 48 % 0.00 in
11:48 50.3 °F 31.3 °F 29.76 in WNW 7.3 mph 13.0 mph 48 % 0.00 in
11:53 50.5 °F 30.5 °F 29.76 in NW 6.2 mph 9.2 mph 46 % 0.00 in
11:58 50.7 °F 31.7 °F 29.76 in NW 9.8 mph 15.0 mph 48 % 0.00 in
12:03 51.0 °F 30.9 °F 29.76 in WNW 6.2 mph 10.4 mph 46 % 0.00 in
12:08 50.9 °F 30.8 °F 29.76 in WSW 7.8 mph 11.5 mph 46 % 0.00 in
12:13 51.3 °F 31.2 °F 29.77 in WSW 6.8 mph 11.5 mph 46 % 0.00 in
12:14 51.3 °F 31.7 °F 29.77 in NW 6.0 mph 10.4 mph 47 % 0.00 in
12:19 51.3 °F 31.7 °F 29.77 in NW 7.0 mph 12.7 mph 47 % 0.00 in
12:24 51.1 °F 31.0 °F 29.77 in WNW 6.9 mph 10.4 mph 46 % 0.00 in
12:29 51.1 °F 33.1 °F 29.76 in WSW 5.7 mph 9.2 mph 50 % 0.00 in
12:34 51.5 °F 32.4 °F 29.76 in West 6.7 mph 11.0 mph 48 % 0.00 in
12:36 51.7 °F 32.1 °F 29.76 in NW 6.0 mph 9.0 mph 47 % 0.00 in
12:41 51.9 °F 31.2 °F 29.76 in NNW 5.1 mph 10.4 mph 45 % 0.00 in
12:46 52.2 °F 30.9 °F 29.76 in WSW 7.8 mph 12.7 mph 44 % 0.00 in
12:51 52.2 °F 30.9 °F 29.76 in WSW 5.4 mph 11.5 mph 44 % 0.00 in
12:56 52.2 °F 31.5 °F 29.76 in West 5.8 mph 13.8 mph 45 % 0.00 in
13:01 52.5 °F 31.2 °F 29.76 in WNW 9.4 mph 18.4 mph 44 % 0.00 in
13:07 52.8 °F 32.6 °F 29.76 in WSW 4.3 mph 19.6 mph 46 % 0.00 in
13:12 53.1 °F 31.7 °F 29.76 in NW 9.0 mph 16.1 mph 44 % 0.00 in
13:17 52.9 °F 31.0 °F 29.76 in NNW 10.3 mph 17.3 mph 43 % 0.00 in
13:22 52.7 °F 31.4 °F 29.76 in West 6.4 mph 17.3 mph 44 % 0.00 in
13:27 52.9 °F 32.7 °F 29.76 in West 3.0 mph 8.0 mph 46 % 0.00 in
13:32 53.1 °F 30.0 °F 29.76 in NW 8.6 mph 15.0 mph 41 % 0.00 in
13:37 53.1 °F 31.2 °F 29.76 in WSW 5.8 mph 11.5 mph 43 % 0.00 in
13:42 53.3 °F 31.4 °F 29.76 in WNW 7.4 mph 15.0 mph 43 % 0.00 in
13:47 53.6 °F 31.6 °F 29.76 in NW 4.1 mph 10.4 mph 43 % 0.00 in
13:52 53.7 °F 31.1 °F 29.76 in North 6.7 mph 10.4 mph 42 % 0.00 in
13:57 54.0 °F 32.0 °F 29.76 in West 4.3 mph 11.5 mph 43 % 0.00 in
14:02 54.2 °F 32.2 °F 29.76 in WNW 4.6 mph 8.1 mph 43 % 0.00 in
14:07 54.4 °F 31.2 °F 29.76 in NW 11.0 mph 14.0 mph 41 % 0.00 in
14:12 54.3 °F 31.1 °F 29.76 in West 9.8 mph 14.0 mph 41 % 0.00 in
14:17 54.3 °F 31.1 °F 29.76 in WNW 8.3 mph 17.3 mph 41 % 0.00 in
14:19 54.4 °F 31.2 °F 29.76 in NW 9.1 mph 18.0 mph 41 % 0.00 in
14:24 54.5 °F 31.3 °F 29.76 in North 6.0 mph 10.0 mph 41 % 0.00 in
14:29 54.6 °F 31.3 °F 29.76 in NNW 4.0 mph 12.7 mph 41 % 0.00 in
14:34 54.6 °F 30.1 °F 29.76 in WSW 8.0 mph 14.0 mph 39 % 0.00 in
14:39 54.6 °F 31.3 °F 29.76 in West 7.4 mph 14.0 mph 41 % 0.00 in
14:44 54.6 °F 31.3 °F 29.76 in WNW 8.7 mph 16.1 mph 41 % 0.00 in
14:49 54.6 °F 33.1 °F 29.76 in WNW 6.6 mph 16.0 mph 44 % 0.00 in
14:54 54.8 °F 32.1 °F 29.76 in WNW 8.6 mph 18.4 mph 42 % 0.00 in
14:59 55.0 °F 30.5 °F 29.76 in NW 8.0 mph 17.3 mph 39 % 0.00 in
15:04 55.1 °F 31.8 °F 29.76 in NW 5.3 mph 11.5 mph 41 % 0.00 in
15:09 55.3 °F 33.2 °F 29.76 in WNW 8.8 mph 11.5 mph 43 % 0.00 in
15:14 55.5 °F 31.5 °F 29.76 in WNW 9.3 mph 15.0 mph 40 % 0.00 in
15:19 55.6 °F 32.2 °F 29.76 in WSW 5.8 mph 10.4 mph 41 % 0.00 in
15:21 55.7 °F 31.7 °F 29.76 in WNW 10.0 mph 15.0 mph 40 % 0.00 in
15:26 55.6 °F 31.6 °F 29.76 in North 4.6 mph 11.5 mph 40 % 0.00 in
15:31 55.7 °F 31.7 °F 29.76 in WNW 6.2 mph 12.7 mph 40 % 0.00 in
15:36 55.8 °F 31.8 °F 29.76 in WNW 6.4 mph 13.8 mph 40 % 0.00 in
15:41 55.7 °F 31.1 °F 29.76 in WSW 6.2 mph 13.8 mph 39 % 0.00 in
15:46 55.7 °F 32.3 °F 29.76 in WNW 7.0 mph 12.0 mph 41 % 0.00 in
15:51 55.9 °F 30.6 °F 29.76 in NNW 9.3 mph 13.0 mph 38 % 0.00 in
15:56 55.8 °F 30.5 °F 29.76 in West 5.5 mph 16.1 mph 38 % 0.00 in
16:01 55.9 °F 30.6 °F 29.76 in NW 4.2 mph 11.5 mph 38 % 0.00 in
16:06 55.9 °F 30.6 °F 29.76 in NNW 8.7 mph 11.5 mph 38 % 0.00 in
16:11 56.0 °F 32.0 °F 29.76 in NNW 4.1 mph 11.5 mph 40 % 0.00 in
16:16 55.9 °F 31.3 °F 29.76 in WNW 4.1 mph 8.0 mph 39 % 0.00 in
16:21 56.0 °F 29.4 °F 29.76 in WNW 8.2 mph 12.7 mph 36 % 0.00 in
16:26 55.9 °F 30.6 °F 29.76 in West 2.9 mph 12.7 mph 38 % 0.00 in
16:31 56.0 °F 30.7 °F 29.76 in WNW 7.4 mph 9.2 mph 38 % 0.00 in
16:34 56.1 °F 30.2 °F 29.76 in NW 7.1 mph 11.5 mph 37 % 0.00 in
16:39 56.3 °F 31.6 °F 29.77 in WNW 5.1 mph 12.7 mph 39 % 0.00 in
16:44 56.3 °F 31.0 °F 29.77 in WNW 4.8 mph 11.5 mph 38 % 0.00 in
16:49 56.3 °F 31.0 °F 29.77 in WNW 4.8 mph 8.0 mph 38 % 0.00 in
16:54 56.2 °F 30.9 °F 29.77 in NW 3.2 mph 10.4 mph 38 % 0.00 in
16:59 56.0 °F 31.4 °F 29.77 in WNW 5.6 mph 9.2 mph 39 % 0.00 in
17:04 56.0 °F 30.7 °F 29.77 in NW 7.8 mph 16.1 mph 38 % 0.00 in
17:09 55.9 °F 30.6 °F 29.77 in West 8.1 mph 12.7 mph 38 % 0.00 in
17:14 55.8 °F 30.5 °F 29.78 in WNW 9.2 mph 15.0 mph 38 % 0.00 in
17:19 55.8 °F 31.8 °F 29.77 in NNW 5.9 mph 11.5 mph 40 % 0.00 in
17:24 55.6 °F 31.6 °F 29.78 in NNW 7.3 mph 15.0 mph 40 % 0.00 in
17:29 55.5 °F 29.6 °F 29.78 in West 4.4 mph 15.0 mph 37 % 0.00 in
17:34 55.3 °F 29.4 °F 29.78 in WNW 5.6 mph 12.7 mph 37 % 0.00 in
17:39 55.1 °F 29.3 °F 29.78 in West 6.7 mph 9.2 mph 37 % 0.00 in
17:44 54.9 °F 30.4 °F 29.78 in North 3.4 mph 12.7 mph 39 % 0.00 in
17:49 54.8 °F 31.5 °F 29.78 in NW 6.1 mph 11.5 mph 41 % 0.00 in
17:52 54.7 °F 32.0 °F 29.79 in NW 5.0 mph 12.0 mph 42 % 0.00 in
17:57 54.4 °F 29.9 °F 29.79 in SW 4.9 mph 18.4 mph 39 % 0.00 in
18:02 53.9 °F 30.1 °F 29.79 in NW 7.3 mph 11.5 mph 40 % 0.00 in
18:07 53.6 °F 29.8 °F 29.79 in NNW 7.6 mph 13.8 mph 40 % 0.00 in
18:12 53.3 °F 29.6 °F 29.79 in WNW 3.3 mph 12.7 mph 40 % 0.00 in
18:17 53.1 °F 30.6 °F 29.79 in NW 7.0 mph 11.5 mph 42 % 0.00 in
18:22 52.9 °F 30.4 °F 29.79 in WNW 6.8 mph 18.4 mph 42 % 0.00 in
18:27 52.7 °F 29.6 °F 29.80 in NNW 4.6 mph 9.2 mph 41 % 0.00 in
18:32 52.6 °F 30.7 °F 29.80 in NW 5.1 mph 8.1 mph 43 % 0.00 in
18:37 52.4 °F 31.1 °F 29.80 in WNW 4.4 mph 11.5 mph 44 % 0.00 in
18:42 52.2 °F 31.5 °F 29.81 in WNW 3.0 mph 7.0 mph 45 % 0.00 in
18:47 52.0 °F 30.2 °F 29.81 in NW 7.6 mph 11.5 mph 43 % 0.00 in
18:52 51.8 °F 30.6 °F 29.81 in WNW 4.9 mph 9.2 mph 44 % 0.00 in
18:57 51.6 °F 31.5 °F 29.81 in WNW 5.4 mph 9.2 mph 46 % 0.00 in
19:02 51.4 °F 30.7 °F 29.81 in WNW 5.4 mph 10.4 mph 45 % 0.00 in
19:08 51.3 °F 30.1 °F 29.82 in NW 6.0 mph 13.0 mph 44 % 0.00 in
19:13 51.2 °F 30.0 °F 29.82 in WNW 4.7 mph 10.4 mph 44 % 0.00 in
19:18 51.2 °F 30.6 °F 29.82 in West 3.7 mph 9.2 mph 45 % 0.00 in
19:23 51.1 °F 30.5 °F 29.83 in WNW 4.0 mph 6.9 mph 45 % 0.00 in
19:28 51.0 °F 30.9 °F 29.83 in West 3.0 mph 6.9 mph 46 % 0.00 in
19:33 50.8 °F 31.3 °F 29.83 in West 4.5 mph 9.2 mph 47 % 0.00 in
19:38 50.6 °F 31.6 °F 29.84 in WNW 1.1 mph 3.5 mph 48 % 0.00 in
19:43 50.4 °F 30.9 °F 29.84 in West 3.5 mph 5.8 mph 47 % 0.00 in
19:48 50.2 °F 30.7 °F 29.85 in WNW 3.7 mph 9.2 mph 47 % 0.00 in
19:53 50.1 °F 30.6 °F 29.85 in WNW 3.9 mph 9.2 mph 47 % 0.00 in
19:58 50.0 °F 30.5 °F 29.85 in West 1.9 mph 9.2 mph 47 % 0.00 in
20:03 49.9 °F 30.5 °F 29.85 in WNW 4.4 mph 8.1 mph 47 % 0.00 in
20:08 49.8 °F 31.4 °F 29.86 in NW 3.7 mph 8.1 mph 49 % 0.00 in
20:13 49.6 °F 31.2 °F 29.86 in NW 1.9 mph 6.9 mph 49 % 0.00 in
20:18 49.5 °F 31.1 °F 29.87 in WNW 3.8 mph 10.4 mph 49 % 0.00 in
20:23 49.4 °F 31.0 °F 29.87 in WNW 6.1 mph 11.5 mph 49 % 0.00 in
20:28 49.3 °F 30.9 °F 29.88 in NW 0.9 mph 4.0 mph 49 % 0.00 in
20:33 49.3 °F 31.4 °F 29.88 in WNW 3.7 mph 6.9 mph 50 % 0.00 in
20:38 49.1 °F 31.2 °F 29.88 in WNW 4.3 mph 7.0 mph 50 % 0.00 in
20:43 48.9 °F 31.1 °F 29.88 in NW 3.2 mph 6.0 mph 50 % 0.00 in
20:48 48.8 °F 30.0 °F 29.89 in West 3.7 mph 8.1 mph 48 % 0.00 in
20:53 48.8 °F 30.0 °F 29.89 in WNW 1.4 mph 5.8 mph 48 % 0.00 in
20:58 48.7 °F 29.4 °F 29.90 in WNW 4.2 mph 8.1 mph 47 % 0.00 in
21:04 48.7 °F 28.8 °F 29.90 in NW 5.7 mph 11.5 mph 46 % 0.00 in
21:09 48.8 °F 28.9 °F 29.90 in NNW 3.5 mph 5.8 mph 46 % 0.00 in
21:14 48.8 °F 28.9 °F 29.90 in WSW 4.1 mph 11.5 mph 46 % 0.00 in
21:19 48.8 °F 28.9 °F 29.91 in WNW 2.8 mph 5.8 mph 46 % 0.00 in
21:24 48.8 °F 28.4 °F 29.91 in WNW 5.0 mph 10.4 mph 45 % 0.00 in
21:29 48.7 °F 28.8 °F 29.91 in WNW 6.1 mph 11.5 mph 46 % 0.00 in
21:34 48.7 °F 28.8 °F 29.91 in WNW 4.9 mph 10.4 mph 46 % 0.00 in
21:39 48.7 °F 28.8 °F 29.91 in West 5.6 mph 10.4 mph 46 % 0.00 in
21:44 48.7 °F 28.8 °F 29.92 in WNW 5.4 mph 10.4 mph 46 % 0.00 in
21:49 48.6 °F 29.3 °F 29.92 in WNW 6.0 mph 10.0 mph 47 % 0.00 in
21:54 48.5 °F 29.2 °F 29.92 in NW 6.3 mph 9.2 mph 47 % 0.00 in
21:59 48.4 °F 29.1 °F 29.92 in NNW 3.8 mph 8.1 mph 47 % 0.00 in
22:04 48.3 °F 28.5 °F 29.92 in WNW 3.2 mph 8.1 mph 46 % 0.00 in
22:09 48.2 °F 28.9 °F 29.92 in West 3.7 mph 9.2 mph 47 % 0.00 in
22:14 48.2 °F 28.4 °F 29.93 in West 1.9 mph 10.4 mph 46 % 0.00 in
22:19 48.1 °F 28.3 °F 29.93 in WNW 6.8 mph 11.5 mph 46 % 0.00 in
22:24 48.1 °F 28.3 °F 29.94 in NW 3.5 mph 8.1 mph 46 % 0.00 in
22:29 48.0 °F 28.7 °F 29.94 in WNW 4.5 mph 11.5 mph 47 % 0.00 in
22:33 47.9 °F 28.6 °F 29.94 in West 5.9 mph 10.4 mph 47 % 0.00 in
22:38 47.9 °F 29.1 °F 29.94 in NW 4.0 mph 8.1 mph 48 % 0.00 in
22:43 47.8 °F 29.0 °F 29.94 in WNW 3.6 mph 7.0 mph 48 % 0.00 in
22:48 47.6 °F 29.9 °F 29.95 in WNW 4.7 mph 9.2 mph 50 % 0.00 in
22:53 47.4 °F 29.2 °F 29.95 in WNW 3.0 mph 7.0 mph 49 % 0.00 in
22:58 47.3 °F 29.6 °F 29.96 in NW 3.5 mph 6.0 mph 50 % 0.00 in
23:03 47.2 °F 30.0 °F 29.96 in NW 3.1 mph 4.6 mph 51 % 0.00 in
23:08 47.0 °F 30.3 °F 29.96 in NW 4.4 mph 7.0 mph 52 % 0.00 in
23:14 46.8 °F 30.6 °F 29.96 in NW 1.0 mph 4.6 mph 53 % 0.00 in
23:17 46.7 °F 30.9 °F 29.97 in WNW 0.4 mph 3.5 mph 54 % 0.00 in
23:22 46.5 °F 31.2 °F 29.97 in NW 1.6 mph 3.5 mph 55 % 0.00 in
23:27 46.3 °F 31.0 °F 29.97 in NW 0.9 mph 3.5 mph 55 % 0.00 in
23:32 46.1 °F 31.7 °F 29.97 in NW 0.5 mph 3.5 mph 57 % 0.00 in
23:37 45.9 °F 31.9 °F 29.98 in NW 1.9 mph 3.5 mph 58 % 0.00 in
23:42 45.6 °F 31.7 °F 29.98 in WNW 1.8 mph 5.0 mph 58 % 0.00 in
23:47 45.4 °F 31.9 °F 29.98 in NW 1.1 mph 3.5 mph 59 % 0.00 in
23:52 45.1 °F 31.6 °F 29.98 in NW 2.1 mph 7.0 mph 59 % 0.00 in
23:57 45.0 °F 31.9 °F 29.99 in NW 0.9 mph 1.2 mph 60 % 0.00 in
Crab Meadow Weather
Compliments of Weather Underground - 3 mb

Script developed by  Jim McMurry - jmcmurry@mwt.net Adapted for the template by  Wim van der Kuil - Leuven-Template.eu

Astronomy: Neptune has at least 11 moons.